| time (UTC) | temp F | wind direction | speed knots | gust knots | rain 1hr in | rain 24hr in | rain mn in | humidity % | barometer mb |
| 20260505004517 | 56 | 313 | 2.6 | 8.7 | 0.00 | 0.03 | 0.03 | 62 | 1007.4 |
| 20260505003021 | 57 | 360 | 0.0 | 4.3 | 0.00 | 0.03 | 0.03 | 58 | 1007.1 |
| 20260505001514 | 57 | 321 | 2.6 | 5.2 | 0.00 | 0.03 | 0.03 | 64 | 1006.9 |
| 20260505000014 | 57 | 316 | 0.9 | 2.6 | 0.01 | 0.03 | 0.03 | 67 | 1006.8 |
| 20260504234512 | 56 | 132 | 0.0 | 0.9 | 0.02 | 0.03 | 0.03 | 65 | 1006.5 |
| 20260504233013 | 55 | 348 | 0.0 | 0.0 | 0.02 | 0.03 | 0.03 | 72 | 1006.4 |
| 20260504231511 | 54 | 345 | 0.0 | 3.5 | 0.02 | 0.03 | 0.03 | 71 | 1006.6 |
| 20260504230011 | 58 | 292 | 0.0 | 10.4 | 0.00 | 0.01 | 0.01 | 58 | 1006.6 |
| 20260504224510 | 61 | 315 | 0.0 | 2.6 | 0.00 | 0.01 | 0.01 | 42 | 1006.2 |
| 20260504223009 | 61 | 349 | 0.0 | 5.2 | 0.00 | 0.01 | 0.01 | 42 | 1005.7 |
| 20260504221510 | 61 | 345 | 1.7 | 7.8 | 0.01 | 0.01 | 0.01 | 44 | 1005.4 |
| 20260504220009 | 61 | 29 | 0.9 | 5.2 | 0.01 | 0.01 | 0.01 | 49 | 1004.6 |
| 20260504214507 | 60 | 27 | 3.5 | 7.8 | 0.01 | 0.01 | 0.01 | 52 | 1004.8 |
| 20260504213006 | 58 | 42 | 4.3 | 7.0 | 0.01 | 0.01 | 0.01 | 55 | 1005.5 |
| 20260504211505 | 58 | 143 | 0.0 | 9.6 | 0.00 | 0.00 | 0.00 | 49 | 1006.7 |
| 20260504210005 | 61 | 339 | 1.7 | 7.0 | 0.00 | 0.00 | 0.00 | 44 | 1006.5 |
| 20260504204504 | 62 | 8 | 2.6 | 8.7 | 0.00 | 0.00 | 0.00 | 37 | 1005.9 |
| 20260504203003 | 64 | 75 | 5.2 | 18.2 | 0.00 | 0.00 | 0.00 | 34 | 1004.9 |
| 20260504201501 | 67 | 79 | 7.8 | 19.1 | 0.00 | 0.00 | 0.00 | 28 | 1004.2 |
| 20260504200100 | 71 | 342 | 3.5 | 6.1 | 0.00 | 0.00 | 0.00 | 23 | 1004.4 |
| 20260504194610 | 71 | 332 | 1.7 | 9.6 | 0.00 | 0.00 | 0.00 | 25 | 1004.2 |
| 20260504193059 | 73 | 37 | 1.7 | 13.9 | 0.00 | 0.00 | 0.00 | 23 | 1004.2 |
| 20260504191557 | 72 | 314 | 1.7 | 10.4 | 0.00 | 0.00 | 0.00 | 24 | 1004.2 |
| 20260504190127 | 72 | 301 | 0.9 | 13.9 | 0.00 | 0.00 | 0.00 | 24 | 1004.3 |
| 20260504184553 | 72 | 281 | 2.6 | 12.2 | 0.00 | 0.00 | 0.00 | 24 | 1004.4 |
| 20260504183051 | 71 | 248 | 1.7 | 7.8 | 0.00 | 0.00 | 0.00 | 25 | 1004.7 |
| 20260504181550 | 71 | 283 | 2.6 | 7.0 | 0.00 | 0.00 | 0.00 | 23 | 1004.9 |
| 20260504180044 | 70 | 360 | 1.7 | 8.7 | 0.00 | 0.00 | 0.00 | 26 | 1005.1 |
| 20260504174540 | 68 | 246 | 3.5 | 8.7 | 0.00 | 0.00 | 0.00 | 27 | 1005.6 |
| 20260504173036 | 67 | 255 | 1.7 | 7.0 | 0.00 | 0.00 | 0.00 | 28 | 1005.7 |
| 20260504171532 | 66 | 288 | 1.7 | 9.6 | 0.00 | 0.00 | 0.00 | 30 | 1005.8 |
| 20260504110148 | 39 | 309 | 0.0 | 0.0 | 0.00 | 0.00 | 0.00 | 64 | 1006.5 |
| 20260504081517 | 46 | 310 | 0.0 | 0.0 | 0.00 | 0.00 | 0.00 | 44 | 1007.5 |
| 20260504060104 | 53 | 323 | 0.0 | 0.0 | 0.00 | 0.00 | 0.00 | 41 | 1008.3 |
| 20260504050108 | 58 | 346 | 0.9 | 4.3 | 0.00 | 0.00 | 0.00 | 34 | 1008.3 |
| 20260504044550 | 59 | 332 | 1.7 | 4.3 | 0.00 | 0.00 | 0.00 | 30 | 1008.1 |
| 20260504043056 | 61 | 329 | 0.0 | 4.3 | 0.00 | 0.00 | 0.00 | 27 | 1008.1 |
| 20260504041548 | 60 | 259 | 0.0 | 0.9 | 0.00 | 0.00 | 0.00 | 30 | 1007.8 |
| 20260504040048 | 61 | 245 | 0.0 | 2.6 | 0.00 | 0.00 | 0.00 | 30 | 1007.8 |
| 20260504034546 | 61 | 254 | 0.0 | 0.9 | 0.00 | 0.00 | 0.00 | 29 | 1007.9 |
| 20260504033054 | 61 | 183 | 0.0 | 0.9 | 0.00 | 0.00 | 0.00 | 29 | 1007.8 |
| 20260504031556 | 61 | 253 | 0.0 | 0.0 | 0.00 | 0.00 | 0.00 | 29 | 1007.9 |
| 20260504030047 | 63 | 263 | 0.0 | 0.0 | 0.00 | 0.00 | 0.00 | 27 | 1007.8 |
| 20260504024547 | 63 | 242 | 0.0 | 0.9 | 0.00 | 0.00 | 0.00 | 27 | 1007.6 |
| 20260504023044 | 64 | 242 | 0.0 | 0.0 | 0.00 | 0.00 | 0.00 | 27 | 1007.5 |
| 20260504021544 | 65 | 249 | 0.0 | 1.7 | 0.00 | 0.00 | 0.00 | 26 | 1007.4 |
| 20260504020045 | 66 | 316 | 0.0 | 1.7 | 0.00 | 0.00 | 0.00 | 25 | 1007.2 |
| 20260504014554 | 67 | 277 | 0.0 | 2.6 | 0.00 | 0.00 | 0.00 | 24 | 1007.2 |
| 20260504013045 | 67 | 262 | 0.0 | 1.7 | 0.00 | 0.00 | 0.00 | 24 | 1007.0 |
| 20260504011541 | 68 | 259 | 0.9 | 5.2 | 0.00 | 0.00 | 0.00 | 23 | 1007.1 |
| 20260504010038 | 68 | 249 | 1.7 | 6.1 | 0.00 | 0.00 | 0.00 | 23 | 1007.2 |